| time (UTC) | temp F | wind direction | speed MPH | gust MPH | rain 1hr in | rain 24hr in | rain mn in | humidity % | barometer mb |
| 20260902113004 | 74 | 9 | 1.0 | 2.0 | 0.00 | 0.00 | 0.00 | 87 | 1019.7 |
| 20260902112459 | 74 | 25 | 0.0 | 1.0 | 0.00 | 0.00 | 0.00 | 87 | 1019.6 |
| 20260902111955 | 74 | 32 | 0.0 | 2.0 | 0.00 | 0.00 | 0.00 | 87 | 1019.7 |
| 20260902111452 | 74 | 37 | 0.0 | 0.0 | 0.00 | 0.00 | 0.00 | 87 | 1019.6 |
| 20260902110947 | 74 | 22 | 0.0 | 1.0 | 0.00 | 0.00 | 0.00 | 87 | 1019.6 |
| 20260902110443 | 74 | 356 | 0.0 | 2.0 | 0.00 | 0.00 | 0.00 | 87 | 1019.5 |
| 20260902105943 | 74 | 62 | 0.0 | 1.0 | 0.00 | 0.00 | 0.00 | 87 | 1019.4 |
| 20260902105433 | 74 | 146 | 0.0 | 1.0 | 0.00 | 0.00 | 0.00 | 87 | 1019.3 |
| 20260902104927 | 74 | 142 | 0.0 | 0.0 | 0.00 | 0.00 | 0.00 | 87 | 1019.3 |
| 20260902104423 | 74 | 142 | 0.0 | 1.0 | 0.00 | 0.00 | 0.00 | 87 | 1019.3 |
| 20260902103923 | 74 | 103 | 0.0 | 0.0 | 0.00 | 0.00 | 0.00 | 86 | 1019.4 |
| 20260902103418 | 75 | 142 | 0.0 | 1.0 | 0.00 | 0.00 | 0.00 | 86 | 1019.3 |
| 20260902102913 | 75 | 50 | 0.0 | 1.0 | 0.00 | 0.00 | 0.00 | 86 | 1019.1 |
| 20260902102410 | 75 | 129 | 0.0 | 2.0 | 0.00 | 0.00 | 0.00 | 86 | 1019.2 |
| 20260902101906 | 75 | 117 | 0.0 | 1.0 | 0.00 | 0.00 | 0.00 | 86 | 1019.2 |
| 20260902101400 | 75 | 50 | 0.0 | 1.0 | 0.00 | 0.00 | 0.00 | 85 | 1019.2 |
| 20260902100900 | 75 | 104 | 0.0 | 1.0 | 0.00 | 0.00 | 0.00 | 85 | 1019.1 |
| 20260902100354 | 75 | 62 | 0.0 | 0.0 | 0.00 | 0.00 | 0.00 | 85 | 1018.9 |
| 20260902095849 | 75 | 50 | 0.0 | 0.0 | 0.00 | 0.00 | 0.00 | 85 | 1018.9 |
| 20260902095349 | 75 | 50 | 0.0 | 0.0 | 0.00 | 0.00 | 0.00 | 85 | 1018.9 |
| 20260902094843 | 75 | 30 | 0.0 | 1.0 | 0.00 | 0.00 | 0.00 | 85 | 1019.0 |
| 20260902094340 | 75 | 112 | 0.0 | 2.0 | 0.00 | 0.00 | 0.00 | 85 | 1018.7 |
| 20260902093838 | 75 | 62 | 0.0 | 0.0 | 0.00 | 0.00 | 0.00 | 85 | 1018.7 |
| 20260902093334 | 75 | 354 | 0.0 | 2.0 | 0.00 | 0.00 | 0.00 | 85 | 1018.8 |
| 20260902092832 | 75 | 19 | 0.0 | 2.0 | 0.00 | 0.00 | 0.00 | 84 | 1018.7 |
| 20260902092329 | 75 | 37 | 0.0 | 1.0 | 0.00 | 0.00 | 0.00 | 84 | 1018.6 |
| 20260902091823 | 75 | 142 | 0.0 | 1.0 | 0.00 | 0.00 | 0.00 | 84 | 1018.6 |
| 20260902091319 | 75 | 148 | 0.0 | 2.0 | 0.00 | 0.00 | 0.00 | 84 | 1018.5 |
| 20260902090815 | 75 | 333 | 0.0 | 1.0 | 0.00 | 0.00 | 0.00 | 84 | 1018.6 |
| 20260902090314 | 75 | 31 | 0.0 | 2.0 | 0.00 | 0.00 | 0.00 | 84 | 1018.6 |
| 20260902085813 | 75 | 358 | 0.0 | 2.0 | 0.00 | 0.00 | 0.00 | 84 | 1018.4 |
| 20260902085309 | 75 | 44 | 0.0 | 1.0 | 0.00 | 0.00 | 0.00 | 84 | 1018.5 |
| 20260902084805 | 75 | 124 | 0.0 | 0.0 | 0.00 | 0.00 | 0.00 | 84 | 1018.3 |
| 20260902084301 | 76 | 124 | 0.0 | 1.0 | 0.00 | 0.00 | 0.00 | 84 | 1018.3 |
| 20260902083756 | 75 | 7 | 0.0 | 1.0 | 0.00 | 0.00 | 0.00 | 83 | 1018.3 |
| 20260902083250 | 76 | 22 | 0.0 | 2.0 | 0.00 | 0.00 | 0.00 | 83 | 1018.3 |
| 20260902082745 | 76 | 297 | 0.0 | 1.0 | 0.00 | 0.00 | 0.00 | 83 | 1018.3 |
| 20260902082242 | 76 | 309 | 0.0 | 1.0 | 0.00 | 0.00 | 0.00 | 83 | 1018.3 |
| 20260902081738 | 76 | 25 | 0.0 | 2.0 | 0.00 | 0.00 | 0.00 | 83 | 1018.4 |
| 20260902081233 | 76 | 326 | 0.0 | 1.0 | 0.00 | 0.00 | 0.00 | 83 | 1018.4 |
| 20260902080728 | 76 | 242 | 0.0 | 1.0 | 0.00 | 0.00 | 0.00 | 83 | 1018.2 |
| 20260902080225 | 76 | 89 | 0.0 | 1.0 | 0.00 | 0.00 | 0.00 | 83 | 1018.3 |
| 20260902075724 | 76 | 75 | 0.0 | 2.0 | 0.00 | 0.00 | 0.00 | 82 | 1018.3 |
| 20260902075221 | 76 | 75 | 0.0 | 2.0 | 0.00 | 0.00 | 0.00 | 82 | 1018.3 |
| 20260902074720 | 76 | 104 | 0.0 | 1.0 | 0.00 | 0.00 | 0.00 | 82 | 1018.3 |
| 20260902074216 | 76 | 50 | 0.0 | 1.0 | 0.00 | 0.00 | 0.00 | 82 | 1018.3 |
| 20260902073711 | 77 | 124 | 0.0 | 0.0 | 0.00 | 0.00 | 0.00 | 82 | 1018.2 |
| 20260902073207 | 77 | 117 | 0.0 | 1.0 | 0.00 | 0.00 | 0.00 | 82 | 1018.2 |
| 20260902072703 | 77 | 129 | 0.0 | 1.0 | 0.00 | 0.00 | 0.00 | 82 | 1018.0 |
| 20260902072159 | 77 | 37 | 0.0 | 0.0 | 0.00 | 0.00 | 0.00 | 81 | 1018.1 |
| 20260902071654 | 77 | 37 | 0.0 | 1.0 | 0.00 | 0.00 | 0.00 | 81 | 1018.3 |
| 20260902071149 | 77 | 18 | 0.0 | 2.0 | 0.00 | 0.00 | 0.00 | 81 | 1018.4 |
| 20260902070646 | 77 | 217 | 0.0 | 0.0 | 0.00 | 0.00 | 0.00 | 80 | 1018.4 |
| 20260902070145 | 77 | 217 | 0.0 | 0.0 | 0.00 | 0.00 | 0.00 | 80 | 1018.2 |
| 20260902065644 | 77 | 50 | 0.0 | 0.0 | 0.00 | 0.00 | 0.00 | 80 | 1018.2 |
| 20260902065140 | 77 | 50 | 0.0 | 0.0 | 0.00 | 0.00 | 0.00 | 80 | 1018.2 |
| 20260902064635 | 77 | 50 | 0.0 | 0.0 | 0.00 | 0.00 | 0.00 | 80 | 1018.3 |
| 20260902064131 | 77 | 50 | 0.0 | 0.0 | 0.00 | 0.00 | 0.00 | 80 | 1018.3 |
| 20260902063626 | 77 | 50 | 0.0 | 0.0 | 0.00 | 0.00 | 0.00 | 80 | 1018.2 |
| 20260902063121 | 77 | 50 | 0.0 | 0.0 | 0.00 | 0.00 | 0.00 | 81 | 1018.1 |
| 20260902062619 | 77 | 7 | 0.0 | 1.0 | 0.00 | 0.00 | 0.00 | 80 | 1018.2 |
| 20260902062115 | 77 | 174 | 0.0 | 0.0 | 0.00 | 0.00 | 0.00 | 80 | 1018.4 |
| 20260902061614 | 78 | 173 | 2.0 | 3.0 | 0.00 | 0.00 | 0.00 | 80 | 1018.3 |
| 20260902061110 | 78 | 124 | 0.0 | 0.0 | 0.00 | 0.00 | 0.00 | 79 | 1018.2 |
| 20260902060607 | 78 | 124 | 0.0 | 0.0 | 0.00 | 0.00 | 0.00 | 79 | 1018.4 |
| 20260902055558 | 78 | 187 | 0.0 | 1.0 | 0.00 | 0.00 | 0.00 | 79 | 1018.2 |
| 20260902055054 | 78 | 22 | 0.0 | 0.0 | 0.00 | 0.00 | 0.00 | 78 | 1018.4 |
| 20260902054548 | 78 | 117 | 0.0 | 0.0 | 0.00 | 0.00 | 0.00 | 78 | 1018.4 |
| 20260902054044 | 78 | 117 | 0.0 | 0.0 | 0.00 | 0.00 | 0.00 | 78 | 1018.5 |
| 20260902053539 | 79 | 117 | 0.0 | 0.0 | 0.00 | 0.00 | 0.00 | 78 | 1018.5 |
| 20260902053039 | 79 | 117 | 0.0 | 0.0 | 0.00 | 0.00 | 0.00 | 78 | 1018.3 |
| 20260902052533 | 78 | 117 | 0.0 | 0.0 | 0.00 | 0.00 | 0.00 | 78 | 1018.3 |
| 20260902052029 | 79 | 117 | 0.0 | 0.0 | 0.00 | 0.00 | 0.00 | 77 | 1018.3 |
| 20260902051529 | 79 | 117 | 0.0 | 0.0 | 0.00 | 0.00 | 0.00 | 77 | 1018.2 |
| 20260902051027 | 79 | 154 | 0.0 | 0.0 | 0.00 | 0.00 | 0.00 | 77 | 1018.5 |
| 20260902050523 | 79 | 154 | 0.0 | 1.0 | 0.00 | 0.00 | 0.00 | 76 | 1018.2 |
| 20260902050018 | 79 | 113 | 0.0 | 2.0 | 0.00 | 0.00 | 0.00 | 76 | 1018.3 |
| 20260902045513 | 79 | 117 | 0.0 | 1.0 | 0.00 | 0.00 | 0.00 | 76 | 1018.3 |
| 20260902045010 | 79 | 104 | 0.0 | 0.0 | 0.00 | 0.00 | 0.00 | 76 | 1018.3 |
| 20260902044504 | 80 | 112 | 0.0 | 1.0 | 0.00 | 0.00 | 0.00 | 75 | 1018.5 |
| 20260902044000 | 80 | 80 | 1.0 | 2.0 | 0.00 | 0.00 | 0.00 | 75 | 1018.5 |
| 20260902043454 | 80 | 142 | 0.0 | 0.0 | 0.00 | 0.00 | 0.00 | 75 | 1018.6 |
| 20260902042949 | 80 | 142 | 0.0 | 1.0 | 0.00 | 0.00 | 0.00 | 75 | 1018.6 |
| 20260902042449 | 80 | 89 | 0.0 | 1.0 | 0.00 | 0.00 | 0.00 | 75 | 1018.6 |
| 20260902041944 | 80 | 117 | 0.0 | 1.0 | 0.00 | 0.00 | 0.00 | 74 | 1018.6 |
| 20260902041439 | 80 | 117 | 0.0 | 1.0 | 0.00 | 0.00 | 0.00 | 74 | 1018.6 |
| 20260902040939 | 80 | 117 | 0.0 | 1.0 | 0.00 | 0.00 | 0.00 | 73 | 1018.7 |
| 20260902040433 | 80 | 129 | 0.0 | 0.0 | 0.00 | 0.00 | 0.00 | 73 | 1018.5 |
| 20260902035932 | 80 | 129 | 0.0 | 1.0 | 0.00 | 0.00 | 0.00 | 73 | 1018.6 |
| 20260902035427 | 80 | 25 | 0.0 | 1.0 | 0.00 | 0.00 | 0.00 | 73 | 1018.7 |
| 20260902034927 | 81 | 22 | 0.0 | 1.0 | 0.00 | 0.00 | 0.00 | 72 | 1018.7 |
| 20260902034422 | 81 | 117 | 0.0 | 0.0 | 0.00 | 0.00 | 0.00 | 71 | 1018.8 |
| 20260902033921 | 81 | 117 | 0.0 | 1.0 | 0.00 | 0.00 | 0.00 | 71 | 1018.6 |
| 20260902033415 | 81 | 142 | 0.0 | 0.0 | 0.00 | 0.00 | 0.00 | 70 | 1018.6 |
| 20260902032914 | 81 | 142 | 0.0 | 0.0 | 0.00 | 0.00 | 0.00 | 70 | 1018.6 |
| 20260902032409 | 81 | 142 | 0.0 | 0.0 | 0.00 | 0.00 | 0.00 | 69 | 1018.6 |
| 20260902031909 | 81 | 142 | 0.0 | 0.0 | 0.00 | 0.00 | 0.00 | 69 | 1018.7 |
| 20260902031359 | 82 | 142 | 0.0 | 0.0 | 0.00 | 0.00 | 0.00 | 69 | 1018.6 |
| 20260902030855 | 82 | 142 | 0.0 | 0.0 | 0.00 | 0.00 | 0.00 | 68 | 1018.7 |
| 20260902030349 | 82 | 142 | 0.0 | 0.0 | 0.00 | 0.00 | 0.00 | 68 | 1018.7 |
| 20260902025848 | 82 | 142 | 0.0 | 0.0 | 0.00 | 0.00 | 0.00 | 68 | 1018.7 |
| 20260902025344 | 82 | 142 | 0.0 | 0.0 | 0.00 | 0.00 | 0.00 | 67 | 1018.7 |
| 20260902024838 | 82 | 142 | 0.0 | 0.0 | 0.00 | 0.00 | 0.00 | 67 | 1018.5 |
| 20260902024334 | 82 | 142 | 0.0 | 0.0 | 0.00 | 0.00 | 0.00 | 66 | 1018.7 |
| 20260902023829 | 83 | 142 | 0.0 | 0.0 | 0.00 | 0.00 | 0.00 | 66 | 1018.6 |
| 20260902023325 | 83 | 142 | 0.0 | 0.0 | 0.00 | 0.00 | 0.00 | 65 | 1018.5 |
| 20260902022823 | 83 | 163 | 0.0 | 1.0 | 0.00 | 0.00 | 0.00 | 65 | 1018.6 |
| 20260902022319 | 83 | 32 | 0.0 | 0.0 | 0.00 | 0.00 | 0.00 | 64 | 1018.4 |
| 20260902021815 | 84 | 32 | 0.0 | 1.0 | 0.00 | 0.00 | 0.00 | 63 | 1018.2 |
| 20260902021309 | 84 | 18 | 1.0 | 2.0 | 0.00 | 0.00 | 0.00 | 63 | 1018.5 |
| 20260902020805 | 84 | 180 | 0.0 | 0.0 | 0.00 | 0.00 | 0.00 | 62 | 1018.4 |
| 20260902020301 | 85 | 180 | 0.0 | 1.0 | 0.00 | 0.00 | 0.00 | 62 | 1018.3 |
| 20260902015755 | 85 | 129 | 0.0 | 0.0 | 0.00 | 0.00 | 0.00 | 61 | 1018.2 |
| 20260902015252 | 85 | 129 | 0.0 | 0.0 | 0.00 | 0.00 | 0.00 | 61 | 1018.2 |
| 20260902014748 | 85 | 142 | 0.0 | 1.0 | 0.00 | 0.00 | 0.00 | 61 | 1018.0 |
| 20260902014244 | 85 | 195 | 0.0 | 1.0 | 0.00 | 0.00 | 0.00 | 61 | 1018.1 |
| 20260902013742 | 85 | 172 | 0.0 | 2.0 | 0.00 | 0.00 | 0.00 | 60 | 1017.8 |
| 20260902013238 | 86 | 117 | 0.0 | 0.0 | 0.00 | 0.00 | 0.00 | 59 | 1017.7 |
| 20260902012733 | 86 | 106 | 0.0 | 1.0 | 0.00 | 0.00 | 0.00 | 58 | 1017.9 |
| 20260902012229 | 86 | 154 | 0.0 | 1.0 | 0.00 | 0.00 | 0.00 | 58 | 1017.8 |
| 20260902011725 | 86 | 127 | 1.0 | 2.0 | 0.00 | 0.00 | 0.00 | 57 | 1017.7 |
| 20260902011224 | 87 | 141 | 1.0 | 2.0 | 0.00 | 0.00 | 0.00 | 57 | 1017.6 |
| 20260902010724 | 87 | 130 | 1.0 | 2.0 | 0.00 | 0.00 | 0.00 | 56 | 1017.7 |
| 20260902010220 | 87 | 130 | 0.0 | 1.0 | 0.00 | 0.00 | 0.00 | 56 | 1017.7 |
| 20260902005718 | 87 | 129 | 0.0 | 2.0 | 0.00 | 0.00 | 0.00 | 55 | 1017.8 |
| 20260902005214 | 88 | 158 | 1.0 | 2.0 | 0.00 | 0.00 | 0.00 | 55 | 1017.6 |
| 20260902004713 | 88 | 121 | 1.0 | 1.0 | 0.00 | 0.00 | 0.00 | 54 | 1017.6 |
| 20260902004209 | 89 | 132 | 1.0 | 1.0 | 0.00 | 0.00 | 0.00 | 52 | 1017.6 |
| 20260902003704 | 89 | 142 | 0.0 | 1.0 | 0.00 | 0.00 | 0.00 | 51 | 1017.5 |
| 20260902003159 | 90 | 217 | 0.0 | 0.0 | 0.00 | 0.00 | 0.00 | 51 | 1017.4 |
| 20260902002654 | 90 | 0 | 0.0 | 0.0 | 0.00 | 0.00 | 0.00 | 50 | 1017.4 |
| 20260902002149 | 90 | 0 | 0.0 | 0.0 | 0.00 | 0.00 | 0.00 | 50 | 1017.5 |
| 20260902001644 | 91 | 0 | 0.0 | 1.0 | 0.00 | 0.00 | 0.00 | 49 | 1017.4 |
| 20260902001144 | 91 | 69 | 0.0 | 3.0 | 0.00 | 0.00 | 0.00 | 49 | 1017.5 |
| 20260902000639 | 91 | 89 | 0.0 | 3.0 | 0.00 | 0.00 | 0.00 | 48 | 1017.4 |
| 20260902000134 | 91 | 89 | 0.0 | 2.0 | 0.00 | 0.00 | 0.00 | 48 | 1017.6 |
| 20260901235634 | 92 | 119 | 1.0 | 2.0 | 0.00 | 0.00 | 0.00 | 48 | 1017.4 |
| 20260901235129 | 92 | 89 | 0.0 | 2.0 | 0.00 | 0.00 | 0.00 | 47 | 1017.4 |
| 20260901234628 | 92 | 48 | 1.0 | 3.0 | 0.00 | 0.00 | 0.00 | 47 | 1017.4 |
| 20260901234124 | 92 | 135 | 0.0 | 1.0 | 0.00 | 0.00 | 0.00 | 47 | 1017.4 |
| 20260901233619 | 93 | 87 | 1.0 | 2.0 | 0.00 | 0.00 | 0.00 | 46 | 1017.4 |
| 20260901233115 | 93 | 104 | 0.0 | 3.0 | 0.00 | 0.00 | 0.00 | 46 | 1017.4 |
| 20260901232614 | 93 | 193 | 2.0 | 4.0 | 0.00 | 0.00 | 0.00 | 45 | 1017.4 |
| 20260901232109 | 93 | 54 | 2.0 | 2.0 | 0.00 | 0.00 | 0.00 | 45 | 1017.6 |
| 20260901231606 | 94 | 117 | 0.0 | 2.0 | 0.00 | 0.00 | 0.00 | 45 | 1017.6 |
| 20260901231102 | 94 | 141 | 2.0 | 3.0 | 0.00 | 0.00 | 0.00 | 44 | 1017.5 |
| 20260901230558 | 94 | 86 | 2.0 | 3.0 | 0.00 | 0.00 | 0.00 | 43 | 1017.4 |
| 20260901230057 | 94 | 136 | 2.0 | 3.0 | 0.00 | 0.00 | 0.00 | 42 | 1017.3 |
| 20260901225553 | 94 | 58 | 0.0 | 2.0 | 0.00 | 0.00 | 0.00 | 43 | 1017.5 |
| 20260901225052 | 94 | 15 | 0.0 | 3.0 | 0.00 | 0.00 | 0.00 | 43 | 1017.4 |
| 20260901224548 | 94 | 0 | 1.0 | 2.0 | 0.00 | 0.00 | 0.00 | 43 | 1017.4 |
| 20260901224044 | 94 | 94 | 1.0 | 3.0 | 0.00 | 0.00 | 0.00 | 42 | 1017.4 |
| 20260901223540 | 95 | 167 | 2.0 | 6.0 | 0.00 | 0.00 | 0.00 | 41 | 1017.3 |
| 20260901223035 | 95 | 142 | 5.0 | 5.0 | 0.00 | 0.00 | 0.00 | 42 | 1017.5 |
| 20260901222531 | 94 | 230 | 0.0 | 2.0 | 0.00 | 0.00 | 0.00 | 41 | 1017.4 |
| 20260901222026 | 95 | 146 | 1.0 | 3.0 | 0.00 | 0.00 | 0.00 | 42 | 1017.3 |
| 20260901221523 | 95 | 4 | 2.0 | 2.0 | 0.00 | 0.00 | 0.00 | 41 | 1017.4 |
| 20260901221018 | 95 | 129 | 2.0 | 4.0 | 0.00 | 0.00 | 0.00 | 41 | 1017.5 |
| 20260901220518 | 96 | 354 | 2.0 | 5.0 | 0.00 | 0.00 | 0.00 | 41 | 1017.3 |
| 20260901220016 | 96 | 51 | 3.0 | 4.0 | 0.00 | 0.00 | 0.00 | 41 | 1017.3 |
| 20260901215514 | 96 | 138 | 2.0 | 7.0 | 0.00 | 0.00 | 0.00 | 40 | 1017.2 |
| 20260901215009 | 96 | 144 | 1.0 | 3.0 | 0.00 | 0.00 | 0.00 | 41 | 1017.2 |
| 20260901214508 | 96 | 57 | 0.0 | 3.0 | 0.00 | 0.00 | 0.00 | 40 | 1017.3 |
| 20260901214002 | 96 | 222 | 1.0 | 4.0 | 0.00 | 0.00 | 0.00 | 39 | 1017.3 |
| 20260901213456 | 96 | 168 | 0.0 | 6.0 | 0.00 | 0.00 | 0.00 | 38 | 1017.3 |
| 20260901212955 | 96 | 36 | 0.0 | 6.0 | 0.00 | 0.00 | 0.00 | 38 | 1017.4 |
| 20260901212451 | 96 | 109 | 3.0 | 7.0 | 0.00 | 0.00 | 0.00 | 39 | 1017.3 |
| 20260901211948 | 96 | 121 | 2.0 | 4.0 | 0.00 | 0.00 | 0.00 | 39 | 1017.4 |
| 20260901211443 | 95 | 121 | 1.0 | 7.0 | 0.00 | 0.00 | 0.00 | 38 | 1017.4 |
| 20260901210939 | 95 | 197 | 0.0 | 3.0 | 0.00 | 0.00 | 0.00 | 37 | 1017.4 |
| 20260901210434 | 95 | 137 | 4.0 | 7.0 | 0.00 | 0.00 | 0.00 | 37 | 1017.5 |
| 20260901205931 | 95 | 143 | 6.0 | 7.0 | 0.00 | 0.00 | 0.00 | 41 | 1017.6 |
| 20260901205430 | 95 | 297 | 4.0 | 5.0 | 0.00 | 0.00 | 0.00 | 42 | 1017.5 |
| 20260901204925 | 95 | 300 | 2.0 | 3.0 | 0.00 | 0.00 | 0.00 | 41 | 1017.8 |
| 20260901204422 | 95 | 96 | 2.0 | 2.0 | 0.00 | 0.00 | 0.00 | 40 | 1017.7 |
| 20260901203921 | 96 | 147 | 0.0 | 4.0 | 0.00 | 0.00 | 0.00 | 39 | 1017.7 |
| 20260901203418 | 96 | 168 | 2.0 | 6.0 | 0.00 | 0.00 | 0.00 | 40 | 1017.9 |
| 20260901202912 | 96 | 149 | 4.0 | 7.0 | 0.00 | 0.00 | 0.00 | 40 | 1017.8 |
| 20260901202406 | 96 | 201 | 2.0 | 6.0 | 0.00 | 0.00 | 0.00 | 40 | 1017.9 |
| 20260901201902 | 96 | 55 | 2.0 | 4.0 | 0.00 | 0.00 | 0.00 | 42 | 1017.9 |
| 20260901201401 | 95 | 158 | 2.0 | 4.0 | 0.00 | 0.00 | 0.00 | 41 | 1018.0 |
| 20260901200856 | 96 | 147 | 4.0 | 9.0 | 0.00 | 0.00 | 0.00 | 39 | 1018.0 |
| 20260901200351 | 96 | 172 | 0.0 | 11.0 | 0.00 | 0.00 | 0.00 | 39 | 1018.1 |
| 20260901195849 | 96 | 193 | 5.0 | 9.0 | 0.00 | 0.00 | 0.00 | 38 | 1018.0 |
| 20260901195343 | 96 | 156 | 1.0 | 6.0 | 0.00 | 0.00 | 0.00 | 39 | 1018.2 |
| 20260901194838 | 96 | 313 | 2.0 | 5.0 | 0.00 | 0.00 | 0.00 | 40 | 1018.2 |
| 20260901194332 | 96 | 226 | 4.0 | 6.0 | 0.00 | 0.00 | 0.00 | 40 | 1018.3 |
| 20260901193830 | 96 | 108 | 3.0 | 9.0 | 0.00 | 0.00 | 0.00 | 40 | 1018.3 |
| 20260901193328 | 96 | 71 | 2.0 | 5.0 | 0.00 | 0.00 | 0.00 | 40 | 1018.3 |
| 20260901192822 | 96 | 200 | 5.0 | 9.0 | 0.00 | 0.00 | 0.00 | 40 | 1018.4 |
| 20260901192318 | 97 | 155 | 3.0 | 6.0 | 0.00 | 0.00 | 0.00 | 41 | 1018.4 |
| 20260901191815 | 97 | 144 | 3.0 | 6.0 | 0.00 | 0.00 | 0.00 | 41 | 1018.6 |
| 20260901191310 | 96 | 337 | 3.0 | 6.0 | 0.00 | 0.00 | 0.00 | 42 | 1018.6 |
| 20260901190806 | 96 | 140 | 4.0 | 10.0 | 0.00 | 0.00 | 0.00 | 40 | 1018.7 |
| 20260901190305 | 96 | 248 | 5.0 | 8.0 | 0.00 | 0.00 | 0.00 | 42 | 1018.8 |
| 20260901185804 | 96 | 332 | 1.0 | 3.0 | 0.00 | 0.00 | 0.00 | 43 | 1019.0 |
| 20260901185305 | 96 | 10 | 3.0 | 4.0 | 0.00 | 0.00 | 0.00 | 43 | 1018.9 |
| 20260901184758 | 95 | 110 | 4.0 | 6.0 | 0.00 | 0.00 | 0.00 | 43 | 1018.9 |
| 20260901184248 | 95 | 87 | 2.0 | 7.0 | 0.00 | 0.00 | 0.00 | 44 | 1018.9 |
| 20260901183744 | 95 | 132 | 2.0 | 6.0 | 0.00 | 0.00 | 0.00 | 43 | 1018.9 |
| 20260901183243 | 96 | 139 | 5.0 | 9.0 | 0.00 | 0.00 | 0.00 | 42 | 1019.1 |
| 20260901182739 | 96 | 22 | 1.0 | 7.0 | 0.00 | 0.00 | 0.00 | 43 | 1019.0 |
| 20260901182238 | 96 | 312 | 3.0 | 5.0 | 0.00 | 0.00 | 0.00 | 44 | 1019.2 |
| 20260901181733 | 95 | 117 | 4.0 | 6.0 | 0.00 | 0.00 | 0.00 | 43 | 1019.2 |
| 20260901181228 | 96 | 97 | 2.0 | 8.0 | 0.00 | 0.00 | 0.00 | 42 | 1019.3 |
| 20260901180727 | 96 | 288 | 4.0 | 6.0 | 0.00 | 0.00 | 0.00 | 43 | 1019.3 |
| 20260901180226 | 96 | 158 | 2.0 | 4.0 | 0.00 | 0.00 | 0.00 | 42 | 1019.4 |
| 20260901175725 | 96 | 304 | 0.0 | 6.0 | 0.00 | 0.00 | 0.00 | 41 | 1019.3 |
| 20260901175221 | 96 | 140 | 2.0 | 7.0 | 0.00 | 0.00 | 0.00 | 43 | 1019.4 |
| 20260901174715 | 95 | 85 | 2.0 | 2.0 | 0.00 | 0.00 | 0.00 | 42 | 1019.4 |
| 20260901174212 | 95 | 111 | 3.0 | 3.0 | 0.00 | 0.00 | 0.00 | 43 | 1019.5 |
| 20260901173707 | 95 | 299 | 3.0 | 4.0 | 0.00 | 0.00 | 0.00 | 43 | 1019.6 |
| 20260901173202 | 95 | 171 | 3.0 | 6.0 | 0.00 | 0.00 | 0.00 | 41 | 1019.8 |
| 20260901172657 | 95 | 159 | 3.0 | 10.0 | 0.00 | 0.00 | 0.00 | 42 | 1019.9 |
| 20260901172150 | 94 | 208 | 1.0 | 6.0 | 0.00 | 0.00 | 0.00 | 44 | 1019.9 |
| 20260901171649 | 94 | 129 | 2.0 | 6.0 | 0.00 | 0.00 | 0.00 | 46 | 1019.8 |
| 20260901171149 | 94 | 89 | 0.0 | 3.0 | 0.00 | 0.00 | 0.00 | 50 | 1020.0 |
| 20260901170648 | 94 | 48 | 2.0 | 3.0 | 0.00 | 0.00 | 0.00 | 51 | 1020.0 |
| 20260901170143 | 94 | 234 | 4.0 | 7.0 | 0.00 | 0.00 | 0.00 | 51 | 1020.1 |
| 20260901165642 | 94 | 157 | 1.0 | 4.0 | 0.00 | 0.00 | 0.00 | 48 | 1020.2 |
| 20260901165137 | 94 | 342 | 4.0 | 4.0 | 0.00 | 0.00 | 0.00 | 49 | 1020.3 |
| 20260901164634 | 94 | 251 | 2.0 | 6.0 | 0.00 | 0.00 | 0.00 | 51 | 1020.4 |
| 20260901164128 | 93 | 80 | 3.0 | 5.0 | 0.00 | 0.00 | 0.00 | 49 | 1020.2 |
| 20260901163624 | 94 | 69 | 0.0 | 4.0 | 0.00 | 0.00 | 0.00 | 50 | 1020.3 |
| 20260901163122 | 94 | 298 | 1.0 | 4.0 | 0.00 | 0.00 | 0.00 | 51 | 1020.4 |
| 20260901162618 | 93 | 112 | 3.0 | 6.0 | 0.00 | 0.00 | 0.00 | 51 | 1020.5 |
| 20260901162112 | 93 | 180 | 2.0 | 6.0 | 0.00 | 0.00 | 0.00 | 52 | 1020.4 |
| 20260901161611 | 93 | 220 | 0.0 | 4.0 | 0.00 | 0.00 | 0.00 | 53 | 1020.6 |
| 20260901161110 | 92 | 69 | 0.0 | 2.0 | 0.00 | 0.00 | 0.00 | 53 | 1020.6 |
| 20260901160607 | 92 | 199 | 5.0 | 6.0 | 0.00 | 0.00 | 0.00 | 52 | 1020.5 |
| 20260901155600 | 91 | 204 | 5.0 | 6.0 | 0.00 | 0.00 | 0.00 | 57 | 1020.6 |
| 20260901155051 | 91 | 340 | 2.0 | 4.0 | 0.00 | 0.00 | 0.00 | 58 | 1020.5 |
| 20260901154551 | 91 | 350 | 3.0 | 4.0 | 0.00 | 0.00 | 0.00 | 59 | 1020.7 |
| 20260901154046 | 91 | 10 | 2.0 | 3.0 | 0.00 | 0.00 | 0.00 | 60 | 1020.5 |
| 20260901153546 | 90 | 338 | 2.0 | 4.0 | 0.00 | 0.00 | 0.00 | 61 | 1020.7 |
| 20260901153040 | 90 | 258 | 4.0 | 6.0 | 0.00 | 0.00 | 0.00 | 62 | 1020.6 |
| 20260901152535 | 89 | 359 | 0.0 | 2.0 | 0.00 | 0.00 | 0.00 | 62 | 1020.8 |
| 20260901152034 | 89 | 210 | 1.0 | 3.0 | 0.00 | 0.00 | 0.00 | 61 | 1020.7 |
| 20260901151530 | 89 | 174 | 2.0 | 4.0 | 0.00 | 0.00 | 0.00 | 62 | 1020.8 |
| 20260901151029 | 89 | 341 | 0.0 | 4.0 | 0.00 | 0.00 | 0.00 | 63 | 1020.7 |
| 20260901150527 | 88 | 339 | 1.0 | 4.0 | 0.00 | 0.00 | 0.00 | 65 | 1020.8 |
| 20260901150026 | 88 | 245 | 2.0 | 3.0 | 0.00 | 0.00 | 0.00 | 65 | 1021.0 |
| 20260901145524 | 87 | 265 | 2.0 | 5.0 | 0.00 | 0.00 | 0.00 | 64 | 1020.7 |
| 20260901145019 | 87 | 358 | 0.0 | 3.0 | 0.00 | 0.00 | 0.00 | 67 | 1021.1 |
| 20260901144515 | 87 | 332 | 3.0 | 3.0 | 0.00 | 0.00 | 0.00 | 67 | 1021.0 |
| 20260901144010 | 86 | 334 | 2.0 | 3.0 | 0.00 | 0.00 | 0.00 | 70 | 1021.0 |
| 20260901143505 | 86 | 6 | 0.0 | 3.0 | 0.00 | 0.00 | 0.00 | 72 | 1020.7 |
| 20260901143001 | 86 | 12 | 1.0 | 3.0 | 0.00 | 0.00 | 0.00 | 72 | 1021.0 |
| 20260901142455 | 85 | 359 | 1.0 | 2.0 | 0.00 | 0.00 | 0.00 | 72 | 1021.2 |
| 20260901141950 | 85 | 293 | 0.0 | 2.0 | 0.00 | 0.00 | 0.00 | 72 | 1021.1 |
| 20260901141444 | 84 | 157 | 2.0 | 4.0 | 0.00 | 0.00 | 0.00 | 72 | 1021.0 |
| 20260901140940 | 84 | 214 | 2.0 | 4.0 | 0.00 | 0.00 | 0.00 | 74 | 1021.0 |
| 20260901140438 | 83 | 178 | 3.0 | 4.0 | 0.00 | 0.00 | 0.00 | 74 | 1021.1 |
| 20260901135932 | 83 | 169 | 2.0 | 5.0 | 0.00 | 0.00 | 0.00 | 75 | 1021.0 |
| 20260901135427 | 82 | 133 | 3.0 | 4.0 | 0.00 | 0.00 | 0.00 | 76 | 1021.0 |
| 20260901134923 | 82 | 173 | 1.0 | 3.0 | 0.00 | 0.00 | 0.00 | 76 | 1021.2 |
| 20260901134419 | 82 | 104 | 2.0 | 5.0 | 0.00 | 0.00 | 0.00 | 78 | 1021.0 |
| 20260901133918 | 81 | 97 | 1.0 | 4.0 | 0.00 | 0.00 | 0.00 | 79 | 1020.8 |
| 20260901133412 | 80 | 174 | 0.0 | 3.0 | 0.00 | 0.00 | 0.00 | 82 | 1021.1 |
| 20260901132911 | 80 | 158 | 2.0 | 4.0 | 0.00 | 0.00 | 0.00 | 84 | 1021.0 |
| 20260901132406 | 78 | 174 | 2.0 | 5.0 | 0.00 | 0.00 | 0.00 | 87 | 1021.0 |
| 20260901131905 | 78 | 24 | 1.0 | 3.0 | 0.00 | 0.00 | 0.00 | 88 | 1021.2 |
| 20260901131404 | 77 | 120 | 3.0 | 4.0 | 0.00 | 0.00 | 0.00 | 88 | 1021.0 |
| 20260901130900 | 76 | 299 | 0.0 | 2.0 | 0.00 | 0.00 | 0.00 | 88 | 1021.1 |
| 20260901130354 | 76 | 315 | 0.0 | 1.0 | 0.00 | 0.00 | 0.00 | 89 | 1021.0 |
| 20260901125852 | 76 | 14 | 0.0 | 1.0 | 0.00 | 0.00 | 0.00 | 89 | 1020.8 |
| 20260901125351 | 75 | 40 | 2.0 | 2.0 | 0.00 | 0.00 | 0.00 | 89 | 1020.7 |
| 20260901124846 | 75 | 322 | 0.0 | 2.0 | 0.00 | 0.00 | 0.00 | 89 | 1020.6 |
| 20260901124342 | 75 | 322 | 0.0 | 2.0 | 0.00 | 0.00 | 0.00 | 89 | 1020.6 |
| 20260901123841 | 74 | 351 | 0.0 | 1.0 | 0.00 | 0.00 | 0.00 | 89 | 1020.6 |
| 20260901123336 | 74 | 342 | 0.0 | 1.0 | 0.00 | 0.00 | 0.00 | 89 | 1020.4 |
| 20260901122834 | 74 | 14 | 0.0 | 1.0 | 0.00 | 0.00 | 0.00 | 89 | 1020.5 |
| 20260901122329 | 73 | 17 | 0.0 | 2.0 | 0.00 | 0.00 | 0.00 | 89 | 1020.4 |
| 20260901121828 | 73 | 309 | 0.0 | 1.0 | 0.00 | 0.00 | 0.00 | 89 | 1020.4 |
| 20260901121324 | 73 | 315 | 0.0 | 2.0 | 0.00 | 0.00 | 0.00 | 89 | 1020.5 |
| 20260901120819 | 73 | 310 | 0.0 | 1.0 | 0.00 | 0.00 | 0.00 | 89 | 1020.4 |
| 20260901120313 | 73 | 7 | 0.0 | 0.0 | 0.00 | 0.00 | 0.00 | 89 | 1020.4 |
| 20260901115808 | 73 | 308 | 0.0 | 1.0 | 0.00 | 0.00 | 0.00 | 89 | 1020.2 |
| 20260901115306 | 73 | 293 | 0.0 | 1.0 | 0.00 | 0.00 | 0.00 | 89 | 1020.4 |
| 20260901114755 | 73 | 1 | 0.0 | 2.0 | 0.00 | 0.00 | 0.00 | 88 | 1020.2 |
| 20260901114251 | 73 | 51 | 0.0 | 2.0 | 0.00 | 0.00 | 0.00 | 88 | 1020.1 |
| 20260901113749 | 73 | 142 | 0.0 | 1.0 | 0.00 | 0.00 | 0.00 | 88 | 1020.1 |
| 20260901113244 | 73 | 50 | 0.0 | 1.0 | 0.00 | 0.00 | 0.00 | 88 | 1020.0 |